Wind_Speed
5 5 5 6 6 5 5 6 6 6 6 6 6 6 5 5 5 4 4 3 2 2 2 1 1 0 0 0 1 2 2 1 1 1 1 1 2 2 2 2 2 2 2
7 6 6 6 7 6 6 6 7 7 7 7 7 7 6 6 6 5 4 4 3 3 2 2 1 2 1 1 1 2 2 1 1 0 0 1 2 2 2 2 3 3 2
9 8 7 7 7 7 7 7 7 7 8 8 8 8 8 7 6 6 5 5 4 3 3 3 2 2 1 1 1 1 1 0 0 1 1 1 2 3 2 2 2 2 2
9 9 8 7 7 8 7 7 7 7 8 8 9 8 8 8 7 7 6 6 5 4 4 4 3 2 2 2 2 2 1 1 1 1 1 2 2 2 2 3 3 3 3
10 9 9 8 8 8 8 8 8 8 9 9 9 9 8 8 8 8 7 7 6 6 5 5 4 3 3 2 2 2 3 2 2 2 2 1 1 2 2 2 3 3 4
9 10 9 9 9 9 9 9 9 9 9 9 10 10 9 9 9 8 8 8 7 7 6 6 5 4 3 3 3 3 3 2 2 2 2 3 3 3 3 3 2 2 3
10 10 10 10 10 9 10 10 10 10 10 10 10 10 10 10 9 9 9 9 8 7 6 6 6 5 5 5 4 4 4 3 2 2 3 3 3 3 3 2 2 2 2
11 10 11 11 11 10 11 11 11 11 11 11 11 11 11 11 10 9 9 9 9 8 7 7 7 7 6 6 5 5 5 5 4 3 3 4 3 3 3 3 3 3 3
11 11 12 12 12 12 11 12 12 12 12 12 12 12 11 11 10 10 9 9 9 8 7 7 7 7 7 6 6 6 5 5 5 5 5 4 5 5 5 5 5 4 5
13 12 13 13 13 13 13 13 13 13 13 13 12 12 12 12 12 11 10 9 9 9 8 8 7 7 7 7 7 7 7 6 6 5 6 6 6 6 7 6 7 7 6
15 14 14 15 14 13 14 13 13 13 13 13 13 13 12 12 12 12 11 10 10 10 9 9 8 8 7 8 8 8 8 8 8 7 7 7 7 7 7 6 7 8 8
17 17 16 15 15 14 14 14 14 13 13 13 13 14 13 13 12 12 11 11 10 11 10 10 10 10 9 9 9 9 8 9 9 8 8 8 8 8 8 7 7 7 8
19 18 17 16 15 15 14 14 14 14 14 15 15 14 14 13 13 12 12 12 11 10 10 10 10 10 11 10 10 10 10 10 9 9 9 9 9 9 9 9 8 9 9
19 18 18 17 16 16 15 15 14 15 15 15 15 14 14 14 14 13 12 12 12 11 11 11 10 11 11 11 10 10 10 11 10 10 10 10 11 11 10 11 11 11 12
19 19 19 19 17 16 16 16 16 16 15 16 15 15 14 15 14 14 13 13 13 13 12 12 11 11 11 11 11 11 11 11 11 11 11 11 11 11 12 12 12 13 13
19 19 19 19 18 18 17 17 17 16 16 16 16 15 14 14 13 13 14 14 13 14 13 13 13 12 12 12 11 12 12 11 12 12 11 11 11 11 12 13 13 13 13
19 19 19 19 19 19 19 18 18 17 16 16 16 15 15 15 13 13 14 14 14 15 14 13 13 13 12 12 12 12 12 13 12 13 12 11 12 12 13 13 13 13 13
19 19 19 20 20 20 20 19 18 17 16 16 16 16 15 15 14 14 15 14 14 14 14 13 13 13 13 13 13 13 13 13 13 13 12 12 12 13 13 13 13 14 14
20 20 20 20 20 20 20 19 18 18 17 16 16 16 16 15 15 16 15 15 14 14 14 13 13 13 13 13 13 13 13 14 13 13 13 13 13 14 13 13 14 14 14
20 21 21 20 20 20 19 19 18 17 16 15 15 15 15 15 16 16 16 15 15 14 14 14 13 13 14 14 14 14 13 13 13 13 14 14 14 14 14 14 15 14 14
21 21 20 20 20 20 19 18 18 17 16 16 16 15 15 15 15 15 15 15 15 15 14 14 14 14 14 15 14 14 14 14 13 14 14 15 15 16 16 15 15 16 16
21 21 20 20 20 20 19 19 18 18 17 16 17 16 15 15 15 15 14 14 15 15 14 14 14 14 14 14 15 15 16 15 15 15 16 16 17 17 17 16 16 17 17
21 20 20 20 20 19 20 19 18 18 18 17 18 17 16 15 15 15 15 15 15 15 15 16 16 15 15 16 16 16 16 15 15 16 17 17 17 18 17 17 18 18 19
21 21 20 20 19 19 19 19 19 19 20 19 18 17 16 16 16 16 16 16 16 16 16 17 17 17 17 17 17 17 16 16 16 16 17 18 18 18 18 19 20 20 20
21 21 20 19 19 19 19 19 19 19 19 19 18 17 17 17 17 17 17 17 16 17 17 17 18 18 18 18 18 18 17 18 18 17 16 18 18 18 19 20 20 20 20
21 20 20 20 20 20 20 20 19 19 19 18 18 18 18 18 18 18 17 18 17 17 17 17 18 18 19 19 19 19 19 19 19 18 18 18 18 19 20 20 20 21 21
Wind_Direction
320 315 304 298 287 283 281 282 282 277 268 268 267 266 263 261 262 265 268 276 286 289 285 292 302 339 89 124 158 145 164 179 181 168 164 177 194 194 173 185 217 218 223
308 306 303 295 288 285 284 283 281 276 272 270 269 266 263 264 264 262 266 275 279 279 279 283 287 288 247 252 156 169 191 203 215 108 28 243 215 205 195 209 223 238 252
302 300 297 291 287 286 284 287 284 277 273 271 268 266 263 262 263 262 268 276 276 274 268 270 282 279 279 270 237 205 216 198 226 241 273 266 236 224 212 210 215 231 256
300 299 295 287 283 283 283 284 282 280 275 272 268 267 266 263 261 262 263 268 271 272 266 266 267 259 271 280 269 258 265 276 308 248 252 255 243 240 244 229 216 221 242
301 299 297 286 283 281 282 282 281 281 278 274 270 266 267 266 262 262 263 265 267 267 263 265 265 255 264 275 276 275 283 278 277 270 262 270 270 262 263 253 246 233 240
300 299 296 294 287 283 282 279 279 280 281 276 273 269 265 265 264 263 260 262 264 261 256 257 257 254 256 263 267 275 277 279 265 278 276 269 283 291 285 266 275 251 256
303 301 299 296 290 285 284 281 281 280 281 279 275 271 268 265 265 262 262 260 260 259 254 249 249 255 261 263 265 271 266 270 270 264 260 275 290 290 287 284 281 273 276
306 303 301 298 294 288 282 279 278 278 281 280 276 270 270 269 268 265 263 257 259 257 253 252 252 255 259 265 266 268 266 255 252 263 268 274 276 282 277 275 263 277 288
304 302 298 296 294 288 283 278 276 275 277 279 276 273 269 269 271 266 262 257 257 255 255 257 258 258 259 263 268 270 267 265 256 261 267 277 272 268 263 266 270 275 282
302 301 299 300 297 292 287 281 279 277 275 275 278 276 270 269 270 263 259 257 256 256 255 257 261 261 262 266 271 273 269 268 266 265 268 267 270 268 267 273 274 280 278
299 297 297 296 295 294 291 286 283 280 276 275 276 275 271 269 270 262 257 257 259 258 257 257 260 261 263 269 272 280 274 269 269 272 271 272 274 270 266 269 271 275 277
299 297 295 291 291 294 293 290 286 282 278 276 276 276 271 268 267 260 255 253 258 258 255 257 260 262 264 268 270 276 273 270 271 272 273 273 275 276 270 270 268 272 275
297 296 296 291 291 292 293 291 287 283 280 278 278 276 270 266 262 258 255 254 259 258 253 254 258 263 263 266 269 271 271 272 275 276 275 276 278 279 271 273 272 271 274
293 293 292 290 292 291 291 290 287 285 282 280 278 276 272 266 259 258 256 256 257 257 253 255 258 260 262 267 269 268 273 279 274 279 278 278 278 278 278 276 275 276 277
288 289 288 287 288 288 289 288 287 286 284 282 277 276 275 270 261 257 259 258 259 259 255 257 257 257 264 268 269 271 277 281 275 277 278 278 279 280 279 276 276 277 279
285 285 286 285 284 285 286 286 286 285 283 281 278 276 276 273 266 263 259 257 262 263 263 262 259 260 263 265 272 274 278 280 277 275 277 279 282 284 283 278 276 277 279
285 284 283 284 283 284 284 285 284 284 281 278 275 273 276 270 266 265 263 258 261 263 263 262 262 261 265 268 272 272 276 277 277 277 277 281 284 285 286 282 280 278 279
284 282 281 282 282 282 283 283 281 280 280 279 274 271 275 270 266 264 263 261 261 263 262 263 264 263 266 268 271 274 275 274 276 277 277 280 283 285 286 286 285 284 281
283 281 281 280 281 282 284 282 280 278 278 279 276 273 271 269 268 265 266 263 261 261 261 263 265 263 265 268 270 274 276 275 275 278 280 282 283 284 285 285 285 287 285
283 283 281 280 280 281 284 283 281 278 274 276 277 271 270 272 271 268 267 262 261 259 260 260 261 262 264 268 270 273 276 277 279 281 286 285 286 287 285 285 285 285 285
281 282 281 280 280 281 283 284 280 275 274 276 277 276 270 272 272 270 266 262 258 259 261 261 261 264 267 268 270 272 275 277 279 281 284 284 285 286 284 283 283 283 282
281 281 281 280 281 281 282 281 279 274 272 275 278 275 273 272 272 272 270 265 260 260 261 262 264 266 268 269 272 273 275 276 278 280 282 284 284 284 284 283 284 283 282
281 281 280 281 281 278 278 279 276 271 271 273 274 274 272 270 269 268 268 265 263 262 262 262 264 266 267 271 274 276 278 278 277 280 283 284 285 283 283 283 284 283 282
278 278 278 278 279 279 277 278 277 275 274 271 272 271 269 268 267 266 267 265 265 264 263 263 262 265 267 272 272 275 278 279 281 281 281 283 285 284 283 284 284 283 282
275 276 277 275 276 277 278 277 276 274 272 270 268 268 267 264 265 264 265 265 267 267 264 263 264 265 267 271 272 274 277 279 281 283 284 283 283 284 283 282 284 285 283
274 274 274 274 272 275 276 276 275 272 270 269 267 266 265 264 264 264 264 263 265 266 265 267 267 267 268 271 272 274 277 278 279 282 285 287 285 285 285 284 286 286 284
Height
5889 5888 5888 5888 5887 5887 5887 5886 5886 5886 5885 5885 5884 5884 5884 5883 5883 5882 5882 5882 5881 5881 5880 5880 5880 5880 5880 5879 5880 5880 5880 5881 5881 5881 5881 5882 5883 5883 5883 5884 5884 5885 5886
5889 5888 5887 5887 5887 5886 5886 5885 5885 5885 5884 5884 5884 5883 5883 5883 5882 5882 5881 5881 5881 5881 5881 5880 5880 5880 5880 5880 5880 5880 5880 5881 5881 5881 5882 5882 5883 5883 5883 5884 5885 5885 5886
5888 5887 5886 5886 5886 5886 5885 5885 5884 5884 5883 5883 5883 5882 5882 5882 5882 5881 5881 5881 5880 5880 5880 5880 5880 5880 5880 5880 5880 5880 5881 5881 5881 5882 5882 5882 5882 5883 5884 5884 5884 5885 5886
5886 5886 5885 5885 5885 5884 5884 5884 5883 5883 5882 5882 5882 5881 5881 5881 5881 5880 5880 5880 5880 5880 5880 5880 5880 5880 5880 5880 5880 5880 5881 5881 5882 5882 5881 5882 5882 5883 5884 5884 5884 5885 5885
5885 5884 5884 5884 5883 5883 5883 5883 5882 5882 5881 5881 5880 5880 5880 5880 5880 5880 5879 5879 5879 5879 5879 5879 5879 5879 5880 5880 5880 5880 5880 5881 5881 5881 5881 5881 5881 5883 5883 5883 5884 5885 5885
5884 5883 5883 5883 5882 5882 5881 5881 5881 5880 5880 5880 5879 5879 5879 5878 5878 5878 5878 5878 5878 5879 5879 5879 5878 5878 5879 5879 5879 5879 5880 5880 5881 5881 5881 5881 5881 5882 5882 5882 5883 5883 5884
5883 5882 5881 5881 5881 5880 5880 5879 5879 5879 5879 5878 5878 5878 5877 5876 5876 5877 5877 5877 5877 5878 5878 5878 5878 5878 5878 5878 5879 5879 5879 5879 5880 5880 5880 5880 5881 5881 5881 5881 5882 5883 5883
5881 5880 5880 5879 5879 5878 5878 5878 5877 5877 5877 5876 5876 5876 5876 5875 5875 5875 5876 5876 5876 5876 5877 5877 5877 5877 5877 5877 5878 5878 5878 5879 5879 5879 5880 5880 5880 5880 5881 5881 5881 5882 5882
5879 5879 5878 5877 5877 5877 5876 5875 5875 5875 5875 5874 5874 5874 5874 5874 5874 5874 5874 5874 5874 5875 5875 5876 5876 5876 5876 5876 5877 5877 5877 5878 5878 5879 5879 5879 5880 5880 5880 5880 5880 5881 5881
5877 5877 5876 5875 5874 5874 5874 5873 5873 5872 5872 5872 5872 5872 5872 5872 5872 5872 5872 5872 5873 5873 5874 5874 5875 5875 5875 5875 5875 5876 5876 5876 5877 5878 5878 5878 5879 5879 5879 5879 5879 5880 5880
5874 5874 5874 5873 5872 5872 5871 5871 5870 5870 5870 5870 5870 5870 5870 5870 5870 5870 5870 5871 5871 5872 5872 5873 5874 5874 5874 5874 5874 5874 5875 5875 5876 5876 5877 5877 5877 5877 5878 5877 5878 5878 5879
5872 5871 5870 5870 5869 5869 5869 5868 5868 5868 5867 5867 5867 5867 5867 5867 5867 5868 5868 5869 5869 5870 5871 5872 5872 5873 5873 5873 5873 5873 5873 5873 5874 5875 5875 5875 5875 5876 5876 5876 5876 5876 5877
5869 5868 5867 5867 5867 5867 5866 5866 5866 5865 5865 5865 5865 5865 5865 5865 5865 5865 5866 5867 5868 5868 5869 5870 5870 5871 5871 5871 5871 5871 5872 5872 5872 5873 5873 5873 5873 5874 5874 5874 5874 5875 5875
5867 5866 5865 5864 5864 5864 5863 5863 5863 5862 5862 5862 5862 5862 5862 5862 5862 5863 5864 5864 5865 5866 5867 5868 5868 5869 5869 5870 5870 5870 5870 5870 5871 5871 5871 5871 5872 5872 5872 5872 5872 5873 5873
5864 5863 5862 5861 5861 5861 5860 5860 5860 5859 5859 5859 5859 5859 5859 5859 5859 5860 5861 5862 5863 5864 5865 5866 5866 5867 5867 5868 5868 5868 5868 5869 5869 5869 5869 5869 5869 5869 5870 5870 5870 5870 5870
5861 5860 5859 5858 5858 5857 5857 5857 5856 5856 5856 5856 5856 5856 5856 5856 5857 5858 5859 5860 5860 5861 5862 5863 5864 5865 5865 5865 5866 5866 5866 5866 5867 5867 5867 5867 5867 5867 5867 5867 5867 5867 5867
5858 5857 5856 5855 5855 5854 5853 5853 5853 5853 5853 5853 5853 5853 5853 5854 5854 5855 5856 5857 5858 5859 5859 5860 5861 5862 5863 5863 5863 5864 5864 5864 5865 5864 5864 5865 5864 5864 5864 5864 5864 5864 5864
5854 5853 5852 5851 5851 5850 5850 5849 5849 5848 5849 5849 5849 5850 5850 5851 5851 5852 5853 5854 5855 5856 5857 5858 5858 5859 5860 5861 5861 5861 5861 5862 5862 5862 5862 5862 5862 5862 5861 5861 5861 5861 5861
5850 5849 5848 5847 5847 5846 5846 5845 5845 5845 5845 5845 5846 5846 5847 5848 5848 5849 5850 5851 5852 5853 5854 5855 5855 5856 5857 5857 5858 5858 5858 5858 5859 5859 5859 5859 5859 5858 5858 5858 5858 5857 5857
5846 5844 5843 5843 5843 5843 5842 5841 5841 5841 5841 5842 5843 5843 5843 5844 5845 5846 5847 5847 5848 5850 5851 5851 5852 5853 5854 5854 5855 5855 5855 5855 5855 5856 5855 5855 5855 5855 5855 5855 5854 5854 5854
5841 5840 5839 5839 5839 5839 5838 5837 5837 5838 5838 5838 5839 5840 5840 5841 5842 5843 5844 5845 5845 5847 5848 5849 5849 5850 5851 5851 5852 5852 5852 5852 5852 5852 5852 5851 5851 5851 5851 5851 5851 5850 5850
5836 5836 5835 5835 5834 5834 5834 5834 5834 5833 5835 5835 5836 5836 5837 5838 5839 5840 5841 5842 5843 5844 5845 5846 5846 5847 5848 5848 5848 5849 5849 5849 5849 5848 5848 5848 5847 5847 5847 5847 5847 5846 5846
5832 5831 5831 5830 5830 5830 5830 5830 5830 5830 5830 5831 5832 5833 5834 5835 5836 5837 5838 5839 5840 5841 5841 5842 5843 5844 5844 5844 5845 5845 5845 5845 5845 5845 5844 5844 5843 5843 5843 5842 5842 5842 5841
5827 5827 5827 5826 5826 5826 5826 5826 5826 5826 5827 5828 5828 5829 5830 5832 5832 5833 5834 5835 5836 5837 5838 5838 5839 5840 5840 5840 5841 5841 5841 5841 5840 5840 5840 5839 5839 5838 5838 5837 5837 5837 5836
5822 5822 5822 5822 5822 5821 5821 5822 5822 5822 5823 5824 5825 5826 5827 5828 5829 5830 5831 5831 5832 5833 5834 5834 5835 5835 5836 5836 5836 5836 5836 5836 5836 5836 5835 5835 5834 5834 5833 5832 5831 5831 5831
5817 5817 5817 5817 5817 5817 5818 5818 5818 5819 5819 5820 5821 5822 5823 5824 5825 5826 5826 5827 5828 5829 5829 5830 5830 5831 5831 5831 5832 5832 5831 5831 5831 5831 5830 5830 5829 5829 5828 5826 5826 5826 5825